STARLINK-1403 (45701 NORAD) Tracking and Keplerian Element Data

This shows tracking and keplerian element data for the satellite.

Feedback or suggestion? Click here.




ElementValue
Catalog45701
NameSTARLINK-1403
Epoch Orbit552
Epoch Day185.50001157
Epoch Year2020
RAAN24.9655
Inclination52.9995
Eccentricity0.0001243
Argument of Perigee85.3184
Mean Anonmoly346.5913
Mean Motion15.62809553
Decay Rate-0.00068313
L11 45701U 20035AW 20185.50001157 -.00068313 00000-0 -74483-3 0 9994
L22 45701 52.9995 24.9655 0001243 85.3184 346.5913 15.62809553 5525

Live tracking and technical data element details for STARLINK-1403 (NORAD 45701). STARLINK-1403 can be tracked NOW for your location showing map with azimuth and elevation plus other details from your city location.

Track the satellite on the map from your city or location and see movement details for azimuth, elevation, latitude, longitude, range, height, and movement on the map or in text.







IsCatalogInMostPopularTable: catalog: 45701, numindb: 4
Update: records affected: 1



GetName: 45701 STARLINK-1403

Hit Count: updated at: Sat, 04 Jul 2020 03:16:54 GMT